When you browse on this site, cookies collect data to enhance your experience and personalize the content and advertising you see.
Visit our Privacy Policy to learn more. By continuing to use the site, you agree to this use of cookies and data.
  • In Lithuania
  • List of Countries
  • For 7 days
  • Water Temperature
  • Satellite Maps
  • Weather Map
  • Weather Widgets
  • user-avatar
    Login

    Hourly Weather Linz

    Today, 20 March, Wednesday

    Time Temperature Precipitation Wind Pressure Humidity
    00:00 +2°C° 0 mm 1 mps 744 mmHg 73%
    01:00 +2°C° 0 mm 0 mps 744 mmHg 70%
    02:00 +2°C° 0 mm 0 mps 744 mmHg 70%
    03:00 +2°C° 0 mm 0 mps 745 mmHg 70%
    04:00 +2°C° 0 mm 0 mps 745 mmHg 69%
    05:00 +2°C° 0 mm 0 mps 745 mmHg 70%
    06:00 +2°C° 0 mm 0 mps 745 mmHg 71%
    07:00 +2°C° 0 mm 0 mps 746 mmHg 68%
    08:00 +4°C° 0 mm 0 mps 746 mmHg 61%
    09:00 +6°C° 0 mm 1 mps 746 mmHg 55%
    10:00 +8°C° 0 mm 1 mps 745 mmHg 48%
    11:00 +9°C° 0 mm 1 mps 745 mmHg 47%
    12:00 +9°C° 0 mm 1 mps 745 mmHg 45%
    13:00 +10°C° 0 mm 1 mps 745 mmHg 43%
    14:00 +10°C° 0 mm 1 mps 745 mmHg 43%
    15:00 +10°C° 0 mm 1 mps 745 mmHg 42%
    16:00 +10°C° 0 mm 1 mps 745 mmHg 42%
    17:00 +8°C° 0 mm 1 mps 745 mmHg 47%
    18:00 +7°C° 0 mm 1 mps 745 mmHg 53%
    19:00 +5°C° 0 mm 1 mps 746 mmHg 58%
    20:00 +5°C° 0 mm 1 mps 746 mmHg 61%
    21:00 +4°C° 0 mm 1 mps 747 mmHg 63%
    22:00 +4°C° 0 mm 1 mps 747 mmHg 66%
    23:00 +3°C° 0 mm 1 mps 747 mmHg 67%

    Tomorrow, 21 March, Thursday

    Time Temperature Precipitation Wind Pressure Humidity
    00:00 +3°C° 0 mm 1 mps 747 mmHg 69%
    01:00 +3°C° 0 mm 1 mps 747 mmHg 70%
    02:00 +2°C° 0 mm 1 mps 747 mmHg 70%
    03:00 +2°C° 0 mm 1 mps 747 mmHg 71%
    04:00 +2°C° 0 mm 1 mps 747 mmHg 71%
    05:00 +2°C° 0 mm 1 mps 747 mmHg 70%
    06:00 +3°C° 0 mm 1 mps 747 mmHg 69%
    07:00 +3°C° 0 mm 1 mps 747 mmHg 67%
    08:00 +5°C° 0 mm 1 mps 747 mmHg 60%
    09:00 +6°C° 0 mm 2 mps 747 mmHg 54%
    10:00 +8°C° 0 mm 2 mps 746 mmHg 47%
    11:00 +10°C° 0 mm 2 mps 746 mmHg 44%
    12:00 +11°C° 0 mm 3 mps 745 mmHg 42%
    13:00 +13°C° 0 mm 3 mps 745 mmHg 39%
    14:00 +13°C° 0 mm 3 mps 745 mmHg 41%
    15:00 +13°C° 0 mm 3 mps 744 mmHg 42%
    16:00 +13°C° 0 mm 3 mps 744 mmHg 43%
    17:00 +11°C° 0 mm 3 mps 744 mmHg 50%
    18:00 +9°C° 0 mm 3 mps 744 mmHg 57%
    19:00 +7°C° 0 mm 2 mps 744 mmHg 64%
    20:00 +6°C° 0 mm 2 mps 745 mmHg 65%
    21:00 +6°C° 0 mm 2 mps 745 mmHg 66%
    22:00 +5°C° 0 mm 2 mps 745 mmHg 67%
    23:00 +6°C° 0 mm 1 mps 745 mmHg 66%

    Day after tomorrow, 22 March, Friday

    Time Temperature Precipitation Wind Pressure Humidity
    00:00 +5°C° 0 mm 1 mps 745 mmHg 66%
    01:00 +5°C° 0 mm 1 mps 745 mmHg 66%
    02:00 +5°C° 0 mm 1 mps 745 mmHg 65%
    03:00 +4°C° 0 mm 1 mps 744 mmHg 65%
    04:00 +4°C° 0 mm 1 mps 744 mmHg 65%
    05:00 +4°C° 0 mm 1 mps 744 mmHg 65%
    06:00 +4°C° 0 mm 1 mps 744 mmHg 65%
    07:00 +5°C° 0 mm 1 mps 744 mmHg 65%
    08:00 +7°C° 0 mm 1 mps 744 mmHg 59%
    09:00 +10°C° 0 mm 1 mps 744 mmHg 52%
    10:00 +12°C° 0 mm 2 mps 744 mmHg 46%
    11:00 +14°C° 0 mm 2 mps 743 mmHg 43%
    12:00 +15°C° 0 mm 2 mps 743 mmHg 41%
    13:00 +17°C° 0 mm 2 mps 743 mmHg 38%
    14:00 +17°C° 0 mm 2 mps 742 mmHg 40%
    15:00 +17°C° 0 mm 2 mps 742 mmHg 42%
    16:00 +17°C° 0 mm 2 mps 742 mmHg 43%
    17:00 +15°C° 0 mm 2 mps 742 mmHg 50%
    18:00 +13°C° 0 mm 2 mps 742 mmHg 58%
    19:00 +11°C° 0 mm 1 mps 742 mmHg 65%
    20:00 +10°C° 0 mm 1 mps 742 mmHg 66%
    21:00 +9°C° 0 mm 1 mps 743 mmHg 68%
    22:00 +8°C° 0 mm 1 mps 743 mmHg 70%
    23:00 +8°C° 0 mm 1 mps 743 mmHg 71%

    23 March, Saturday

    Time Temperature Precipitation Wind Pressure Humidity
    00:00 +8°C° 0 mm 1 mps 743 mmHg 71%
    01:00 +7°C° 0 mm 1 mps 743 mmHg 72%
    02:00 +7°C° 0 mm 1 mps 743 mmHg 73%
    03:00 +7°C° 0 mm 1 mps 742 mmHg 73%
    04:00 +6°C° 0 mm 1 mps 742 mmHg 74%
    05:00 +6°C° 0 mm 1 mps 742 mmHg 75%
    06:00 +7°C° 0 mm 1 mps 743 mmHg 75%
    07:00 +7°C° 0 mm 1 mps 743 mmHg 76%
    08:00 +9°C° 0 mm 1 mps 743 mmHg 70%
    09:00 +11°C° 0 mm 1 mps 742 mmHg 65%
    10:00 +13°C° 0 mm 1 mps 742 mmHg 59%
    11:00 +14°C° 0 mm 1 mps 742 mmHg 56%
    12:00 +16°C° 0 mm 1 mps 742 mmHg 53%
    13:00 +18°C° 0 mm 1 mps 741 mmHg 50%
    14:00 +18°C° 0 mm 1 mps 741 mmHg 49%
    15:00 +18°C° 0 mm 1 mps 741 mmHg 49%
    16:00 +18°C° 0 mm 1 mps 740 mmHg 49%
    17:00 +14°C° 0 mm 0 mps 740 mmHg 56%
    18:00 +13°C° 0 mm 0 mps 740 mmHg 63%
    19:00 +11°C° 0 mm 0 mps 740 mmHg 69%
    20:00 +10°C° 0 mm 0 mps 741 mmHg 72%
    21:00 +10°C° 0 mm 0 mps 741 mmHg 74%
    22:00 +10°C° 0 mm 1 mps 741 mmHg 77%
    23:00 +10°C° 0 mm 1 mps 741 mmHg 78%

    24 March, Sunday

    Time Temperature Precipitation Wind Pressure Humidity
    00:00 +9°C° 0 mm 1 mps 741 mmHg 80%
    01:00 +9°C° 0 mm 1 mps 741 mmHg 81%
    02:00 +8°C° 0 mm 1 mps 740 mmHg 82%
    03:00 +8°C° 0 mm 1 mps 740 mmHg 82%
    04:00 +8°C° 0 mm 1 mps 740 mmHg 83%
    05:00 +8°C° 0 mm 1 mps 740 mmHg 82%
    06:00 +8°C° 0 mm 1 mps 740 mmHg 81%
    07:00 +8°C° 0 mm 1 mps 740 mmHg 80%
    08:00 +10°C° 0 mm 1 mps 739 mmHg 72%
    09:00 +12°C° 0 mm 1 mps 739 mmHg 64%
    10:00 +15°C° 0 mm 1 mps 739 mmHg 56%
    11:00 +16°C° 0 mm 1 mps 738 mmHg 53%
    12:00 +18°C° 0 mm 1 mps 738 mmHg 50%
    13:00 +19°C° 0 mm 1 mps 738 mmHg 47%
    14:00 +19°C° 0 mm 1 mps 737 mmHg 47%
    15:00 +19°C° 0 mm 1 mps 737 mmHg 48%
    16:00 +19°C° 0 mm 1 mps 736 mmHg 48%
    17:00 +16°C° 0 mm 1 mps 736 mmHg 55%
    18:00 +15°C° 0 mm 1 mps 737 mmHg 62%
    19:00 +13°C° 0 mm 1 mps 737 mmHg 68%
    20:00 +12°C° 0 mm 1 mps 737 mmHg 72%
    21:00 +12°C° 0 mm 1 mps 737 mmHg 76%
    22:00 +11°C° 0 mm 1 mps 737 mmHg 81%
    23:00 +11°C° 0 mm 1 mps 737 mmHg 83%

    25 March, Monday

    Time Temperature Precipitation Wind Pressure Humidity
    00:00 +10°C° 0 mm 1 mps 737 mmHg 85%
    01:00 +10°C° 0 mm 1 mps 737 mmHg 87%
    02:00 +10°C° 0 mm 1 mps 736 mmHg 88%
    03:00 +9°C° 0 mm 2 mps 736 mmHg 89%
    04:00 +8°C° 0 mm 2 mps 736 mmHg 90%
    05:00 +8°C° 0 mm 2 mps 736 mmHg 91%
    06:00 +8°C° 0 mm 2 mps 736 mmHg 91%
    07:00 +8°C° 0 mm 2 mps 736 mmHg 91%
    08:00 +9°C° 0.2 mm 3 mps 736 mmHg 87%
    09:00 +10°C° 0.2 mm 4 mps 736 mmHg 82%
    10:00 +10°C° 0.2 mm 5 mps 736 mmHg 77%
    11:00 +11°C° 0.3 mm 6 mps 736 mmHg 73%
    12:00 +11°C° 0.3 mm 7 mps 735 mmHg 69%
    13:00 +11°C° 0.3 mm 7 mps 735 mmHg 64%
    14:00 +11°C° 0.1 mm 7 mps 735 mmHg 61%
    15:00 +11°C° 0.1 mm 7 mps 735 mmHg 58%
    16:00 +10°C° 0.1 mm 7 mps 734 mmHg 55%
    17:00 +9°C° 0 mm 7 mps 735 mmHg 59%
    18:00 +8°C° 0 mm 6 mps 735 mmHg 63%
    19:00 +6°C° 0 mm 5 mps 735 mmHg 66%
    20:00 +5°C° 0 mm 6 mps 735 mmHg 68%
    21:00 +4°C° 0 mm 6 mps 736 mmHg 70%
    22:00 +4°C° 0 mm 6 mps 736 mmHg 72%
    23:00 +3°C° 0.1 mm 6 mps 736 mmHg 70%
    Show more